Location: Alsip
(41.6689°N, 87.7387°W)
Time: 14:22:22
(UTC+00:00)

Cosmos 2221 - Pass Details

Date: 14 July 2020
Orbit: 592 x 616 km, 82.5° (Epoch: 04 August)

Event Time Altitude Azimuth Distance (km) Brightness Sun altitude
Rises 03:26:35 0° 345° (NNW) 2,880 7.3 -17.8°
Reaches altitude 10° 03:28:52 10° 340° (NNW) 1,967 6.3 -18.0°
Maximum altitude 03:33:02 46° 267° (W) 815 3.3 -18.5°
Enters shadow 03:35:29 22° 204° (SSW) 1,333 4.0 -18.8°
